カタログに戻る

NIMBUS 2 DEB

運用中SSO
NORAD 59977·DEBRIS·🇺🇸 United States

打ち上げ May 15, 1966 から Vandenberg Space Force Base

Loading…

次のパス (今後24時間)

TLE

最新Source: Space-Track

元期: Sep 14, 2026, 11:19 UTC

1 59977U 66040CG  26257.47170381  .00000872  00000-0  16438-2 0  9997
2 59977 100.3136  74.2915 0051280 354.1709   5.8816 13.41195470470224

AllMySatでNIMBUS 2 DEBをリアルタイム追跡

Download on the App Store